Terminal Aerodrome Forecast
Issued by NWS Sterling, VA

Home | Current Version | Previous Version | Text Only | Print | Product List | Glossary On
Versions: 1 2 3 4 5 6 7 8 9 10 11 12 13 14 15 16 17 18 19 20 21 22 23
000
FTUS41 KLWX 031540 AAB
TAFBWI
TAF AMD
KBWI 031540Z 0316/0418 VRB03KT P6SM BKN050
     FM031900 14006KT P6SM OVC030
      TEMPO 0319/0322 5SM -FZRAPL OVC020
     FM032200 13008KT 3SM -FZRA BR OVC015
     FM040300 22007KT 1 1/2SM BR OVC004
     FM041000 25005KT 2SM -RA OVC004=

USA.gov is the U.S. government's official web portal to all federal, state and local government web resources and services.